ECMWFFLT2_850_thetae_132.txt.gz
Theta_e
333 331 324 315 314 314 316 317 319 328 333 333 335 336 336 336 335 333 333 332 327 320 312 310 311 310 310 310 311 311 311 313 314 317 318 319 319 320 321 321 321 321 321 321 321 321 320 319 320 320 320 321 324 326 326 328 332 332 333 330 325 323
334 333 329 318 313 315 315 316 319 327 333 334 335 335 335 335 333 333 335 337 337 332 323 320 317 313 312 311 311 311 310 311 312 314 316 318 320 321 321 322 322 322 322 321 321 321 321 321 321 321 321 320 321 323 324 328 334 334 331 329 327 323
336 335 333 324 313 314 315 315 321 329 333 334 333 333 334 334 333 334 337 339 339 338 334 332 326 322 320 315 312 312 311 311 311 311 313 315 317 319 320 321 321 321 321 321 321 321 322 324 323 322 321 321 322 324 327 329 332 333 332 331 329 325
338 338 336 330 317 314 315 316 323 329 331 332 331 333 334 336 336 335 337 339 338 338 338 337 331 326 324 321 315 313 312 311 311 311 310 311 312 314 316 317 319 319 320 319 321 326 331 333 330 326 323 322 321 323 327 328 330 333 333 332 330 325
341 340 336 334 322 313 314 318 326 330 329 330 332 335 337 337 337 337 337 338 337 338 339 337 333 326 325 329 327 322 319 316 316 315 314 313 311 311 312 313 313 315 317 317 320 330 336 337 335 332 328 325 322 322 324 324 329 334 333 332 332 329
342 341 337 335 325 313 314 318 326 332 329 329 333 336 338 338 338 337 337 338 337 337 339 337 333 329 329 333 332 328 327 325 325 324 321 320 317 317 316 315 315 317 319 317 321 330 334 335 335 335 333 332 328 324 324 322 326 331 332 332 333 332
342 341 337 334 323 313 318 320 325 334 331 329 334 337 337 338 339 338 337 338 337 337 339 338 334 334 334 334 331 329 329 328 329 330 327 327 329 330 325 325 328 328 329 327 328 332 333 332 333 334 334 336 335 330 326 325 329 332 333 332 331 332
341 339 337 335 326 319 329 331 328 333 335 333 335 337 338 338 339 338 338 338 337 336 337 337 334 335 335 334 334 333 332 331 330 332 332 331 335 336 332 331 333 334 334 333 333 332 332 332 331 332 333 334 335 334 330 329 332 332 332 333 332 333
340 337 336 336 331 329 335 337 333 333 336 337 336 338 339 338 338 338 338 337 335 335 336 336 334 335 334 332 336 336 335 335 332 335 337 333 334 337 335 333 334 334 334 333 333 331 330 331 331 332 333 333 333 334 333 332 332 329 328 333 333 333
339 336 336 336 335 335 336 337 336 334 336 337 336 338 338 337 337 337 336 334 333 333 334 334 334 336 334 332 336 335 333 334 333 334 336 334 333 335 336 335 334 335 335 334 334 332 331 330 330 331 332 333 333 334 334 333 334 331 327 331 333 332
337 335 336 335 335 336 336 336 335 334 336 336 335 337 336 335 337 337 334 332 330 330 329 333 335 337 336 335 336 334 332 333 333 333 334 334 334 334 334 334 334 335 335 334 334 334 333 332 331 331 331 332 333 333 334 334 335 333 329 330 332 331
336 335 336 334 336 336 336 336 334 335 336 335 336 336 335 335 337 336 331 327 326 327 329 335 338 337 338 337 336 337 335 335 335 334 334 334 335 335 334 334 334 334 334 333 333 333 333 333 334 333 333 332 332 333 333 334 334 334 333 331 331 330
335 335 335 333 336 336 337 336 334 337 335 334 337 335 335 336 335 332 329 328 329 331 335 337 337 337 338 338 337 338 336 336 336 335 335 335 334 335 335 335 335 335 335 333 333 333 332 333 334 334 334 333 333 333 333 333 333 334 335 333 332 331
336 335 335 335 336 337 337 335 334 337 334 335 336 334 335 333 330 332 334 334 335 336 337 337 337 337 337 337 337 337 337 337 336 336 336 335 335 335 335 335 336 337 337 335 334 334 334 333 333 332 333 333 333 333 333 333 333 334 334 334 334 333
336 334 336 336 335 336 337 335 334 336 335 335 336 334 335 332 333 337 337 336 337 337 337 337 337 337 337 338 338 338 337 337 336 335 335 334 334 334 335 335 336 336 336 336 335 335 336 336 335 334 334 334 333 333 334 334 333 333 334 334 334 335
335 334 337 336 335 336 336 335 335 336 335 335 335 335 336 337 338 338 337 337 337 337 336 337 338 338 338 338 338 338 337 337 336 335 333 332 332 331 332 332 332 333 333 334 335 335 336 337 336 336 336 335 334 334 334 334 334 333 334 335 335 334
335 336 337 335 337 337 333 334 338 336 334 334 335 337 339 339 338 337 337 338 337 337 337 338 339 338 337 337 337 336 336 335 333 332 332 331 331 330 330 330 330 330 330 331 332 333 335 336 336 336 335 335 335 335 334 333 333 333 334 334 334 335
336 337 336 334 337 336 332 334 338 337 334 335 337 339 339 338 337 337 338 339 339 339 338 338 338 337 335 334 335 334 334 333 331 331 331 329 330 330 331 331 331 330 330 331 331 331 333 334 335 334 333 332 333 334 333 333 333 333 333 333 333 334
337 337 335 335 337 335 334 337 338 336 336 338 340 340 338 337 338 339 339 340 340 339 339 338 337 335 332 331 333 335 334 332 330 330 328 328 329 331 331 332 332 332 332 332 332 332 332 332 332 332 332 331 332 332 332 332 332 332 332 332 332 333
337 336 334 336 336 332 333 336 337 337 338 339 339 338 338 338 339 340 339 340 340 339 338 336 335 335 332 330 332 336 335 332 330 330 330 330 331 331 333 333 332 332 332 332 331 330 331 333 333 334 333 332 332 332 332 332 331 331 332 332 333 332
336 336 333 334 335 332 332 334 334 336 338 340 340 339 339 339 340 340 340 340 339 337 334 333 335 335 331 330 331 334 335 333 333 334 334 335 334 333 334 334 334 333 334 333 332 331 332 334 336 335 334 334 333 333 333 332 332 331 331 332 332 332
336 335 334 335 336 335 334 334 334 335 336 336 338 340 339 339 340 340 340 338 336 335 333 332 335 334 330 331 332 334 335 336 337 337 337 337 337 336 336 336 336 336 336 336 336 335 335 335 336 335 335 335 334 333 333 332 332 331 331 331 331 331
338 337 337 337 337 336 335 335 335 334 333 333 334 337 338 339 340 338 337 335 333 334 335 335 336 334 332 332 332 333 335 337 337 337 337 337 336 337 337 337 337 336 336 336 336 336 335 335 335 335 336 335 334 333 333 332 332 332 332 332 331 331
338 337 338 338 337 336 335 336 335 334 333 333 332 334 337 338 338 337 335 334 333 334 336 338 337 335 334 334 333 333 335 336 337 337 336 336 336 337 337 336 336 336 336 336 336 335 335 335 335 335 335 335 334 333 333 333 332 332 332 332 331 331
338 337 337 336 335 335 335 334 334 334 333 333 330 329 335 339 338 336 335 335 335 335 336 337 336 334 334 336 335 335 336 336 336 337 337 337 337 337 336 336 336 336 336 335 335 335 334 335 335 335 335 335 335 334 333 332 332 332 331 330 330 331
338 337 338 336 335 334 334 333 334 333 331 331 329 329 335 339 338 337 337 338 337 336 336 336 333 332 333 335 335 336 336 336 337 337 337 336 336 335 335 334 334 334 334 334 334 334 333 333 334 334 334 334 334 334 333 332 332 333 332 331 330 330
337 338 338 337 336 335 333 332 331 329 329 330 331 334 337 338 338 338 338 339 337 336 336 335 332 332 333 334 335 336 336 336 336 335 334 333 333 332 331 331 331 330 330 330 330 330 330 331 331 331 332 333 332 333 333 332 332 332 332 331 330 330
338 338 338 337 336 335 331 328 329 328 332 335 335 336 338 338 339 338 337 337 335 334 335 334 333 333 333 334 335 335 335 334 333 332 332 332 333 332 331 331 330 330 330 329 329 329 329 329 329 329 329 331 332 332 332 332 332 332 332 332 331 330
338 337 338 337 335 334 330 329 331 332 335 338 336 337 338 338 339 337 337 337 336 335 336 335 335 334 334 334 333 333 332 332 331 332 332 333 333 332 331 331 330 329 329 329 329 329 329 329 330 330 329 330 331 331 332 332 332 332 331 331 331 331
337 337 337 337 335 334 331 329 332 334 337 337 335 336 338 338 337 337 337 337 337 337 337 336 336 335 334 333 331 331 330 330 331 331 331 331 331 330 330 330 330 330 329 330 329 329 330 330 330 330 330 330 331 331 331 331 331 331 331 331 331 331
335 336 337 337 335 333 331 330 332 332 335 334 332 334 338 338 337 338 338 338 338 337 336 336 335 334 332 330 330 330 328 328 329 328 328 328 328 329 329 330 329 329 329 329 328 328 328 329 329 330 330 330 331 331 331 331 331 331 331 330 330 330
332 334 336 336 335 334 332 331 330 329 331 331 330 333 337 338 338 338 338 337 337 336 335 334 332 331 330 329 328 325 323 324 326 327 327 327 327 328 328 328 327 327 327 327 327 327 327 327 328 330 330 330 331 331 331 331 331 331 330 330 330 329
330 333 335 334 333 334 332 329 328 329 329 330 330 333 336 337 338 337 337 336 335 334 333 332 331 331 331 328 325 322 322 323 324 325 326 326 326 326 326 326 327 327 327 327 327 328 328 328 329 330 330 331 331 331 331 331 331 331 329 329 330 329
332 333 333 332 331 330 328 327 327 327 327 328 331 334 336 337 337 336 336 334 333 332 332 331 330 330 328 325 323 322 323 323 323 324 324 324 325 326 326 326 327 327 327 327 328 328 329 330 330 331 331 331 331 331 331 331 331 331 330 329 330 329
334 332 330 329 329 328 327 328 328 328 327 327 330 334 335 336 336 335 334 332 331 331 331 329 328 327 325 323 323 322 321 321 321 321 321 322 323 324 325 326 327 328 328 328 329 329 330 331 331 332 332 332 331 331 331 331 331 331 330 330 330 329
333 330 328 327 328 328 329 330 328 328 328 327 331 335 335 334 334 332 331 330 329 329 328 326 326 325 324 323 323 320 318 318 318 318 319 320 320 322 323 324 326 327 328 329 329 329 330 331 331 331 331 331 331 331 331 330 330 330 330 330 329 329
333 330 329 329 330 329 330 332 331 331 331 331 334 335 333 332 331 329 329 328 327 326 325 323 323 323 323 322 320 317 315 317 317 318 319 320 320 322 323 324 325 325 326 327 328 329 330 331 331 331 331 331 330 330 330 330 329 330 329 329 328 328

ECMWFFLT2_850_thetae_135.txt.gz
Theta_e
314 313 314 315 315 318 322 327 329 331 332 334 336 336 336 333 332 330 324 319 314 309 309 310 310 310 311 311 312 313 314 314 314 315 315 315 315 314 315 314 315 315 315 316 317 317 316 318 319 319 321 322 327 331 331 332 332 331 333 333 330 328
316 313 313 315 315 316 320 325 329 331 333 334 336 335 334 332 331 330 323 317 312 309 310 311 310 310 310 310 311 312 313 315 316 316 317 317 317 317 317 317 318 318 318 320 320 319 318 318 319 319 320 320 323 324 325 330 332 332 333 332 331 330
321 316 313 314 315 315 317 322 327 330 332 334 335 334 333 332 332 334 333 328 320 317 319 316 311 311 311 311 311 311 311 313 314 316 317 318 318 318 318 318 318 319 319 320 320 320 320 321 321 322 322 320 320 319 321 328 332 333 332 331 332 332
326 320 314 314 314 315 316 320 326 329 331 333 333 333 331 331 334 337 337 336 331 328 327 322 317 315 314 313 311 311 311 311 312 313 315 316 317 318 318 318 318 318 318 318 319 321 323 325 327 328 328 326 323 321 319 323 330 333 332 332 333 332
330 324 317 315 314 315 315 319 325 329 331 332 332 331 331 332 335 337 337 336 335 333 330 326 322 319 320 320 316 313 312 311 311 311 311 312 313 314 315 315 316 316 316 316 317 323 325 324 327 331 333 332 330 327 323 321 326 332 333 333 333 332
333 329 323 317 314 315 315 319 325 330 331 331 331 331 332 334 335 337 336 336 335 334 332 331 327 323 326 329 327 324 321 320 320 317 315 314 314 312 312 314 315 317 318 316 315 322 327 326 328 331 333 332 332 332 330 326 324 329 332 332 332 332
335 334 330 319 313 315 315 320 326 329 329 330 331 332 334 336 336 336 336 336 335 334 335 334 331 327 328 330 329 328 326 327 327 325 322 321 321 319 319 320 322 326 327 326 322 325 330 331 331 332 332 331 330 331 332 331 327 328 331 332 332 331
338 335 333 323 314 315 316 322 327 328 328 330 333 335 336 336 336 336 336 337 336 334 334 335 332 330 329 327 325 327 326 326 326 327 327 326 325 325 327 328 328 330 332 333 331 330 331 332 332 331 331 331 331 331 331 332 331 330 331 332 331 330
339 336 335 328 317 314 318 324 327 327 329 332 335 336 336 337 337 337 337 338 337 334 334 335 332 331 330 325 325 328 327 327 326 327 330 330 329 328 330 332 332 332 334 334 333 333 331 331 331 331 331 331 331 331 331 331 332 332 331 331 330 329
340 336 333 327 317 314 320 326 328 328 329 331 335 335 334 337 338 338 338 338 337 333 334 336 333 333 331 326 329 333 330 330 330 330 333 333 332 332 333 335 334 333 333 333 333 334 333 331 330 330 330 331 331 332 332 332 333 333 333 332 331 330
339 336 332 322 315 316 321 327 330 332 332 331 334 336 334 335 337 338 337 338 337 334 334 335 333 334 331 325 331 335 333 332 332 333 334 333 333 332 333 333 333 332 332 332 333 333 334 333 331 330 330 331 332 333 333 333 333 334 334 334 333 333
338 336 333 325 322 325 326 328 331 333 333 333 335 336 336 336 335 336 335 335 335 333 333 332 331 332 331 330 333 335 334 333 333 334 334 333 334 333 333 333 333 333 332 332 333 333 333 333 333 332 331 331 331 332 333 332 333 333 333 333 334 334
338 336 335 333 333 334 333 333 333 332 334 335 335 336 336 335 335 334 332 331 332 332 331 329 331 334 335 336 336 336 336 335 335 335 334 334 334 334 334 334 334 334 334 334 334 334 333 332 333 333 332 332 331 332 332 332 333 333 333 333 333 333
339 336 335 336 337 336 335 335 334 334 335 335 336 336 335 334 333 332 329 328 327 327 327 329 334 336 336 336 336 336 336 336 336 336 335 335 334 334 334 334 335 334 334 334 334 334 333 333 333 333 333 333 333 333 333 333 333 333 333 333 333 333
338 336 335 336 337 336 335 334 334 336 335 336 337 337 336 333 331 330 329 328 327 327 330 334 336 336 335 336 336 337 336 336 336 335 335 335 334 333 333 334 334 335 334 334 333 333 334 334 334 334 335 335 335 335 334 334 333 333 333 334 334 333
336 335 335 337 337 336 336 335 335 337 334 335 337 336 335 332 328 328 332 333 333 334 335 336 335 335 335 335 337 337 336 336 335 335 334 333 332 331 331 331 332 332 332 333 333 333 334 334 335 335 336 336 335 335 334 334 333 334 334 334 334 334
335 335 334 335 337 336 335 334 335 335 333 334 337 335 334 331 330 333 336 335 335 336 335 335 335 335 335 336 337 336 335 335 335 335 334 332 331 331 331 330 330 330 331 331 331 331 332 333 334 334 335 335 333 332 331 331 331 332 332 333 332 333
335 335 333 332 335 333 331 332 333 333 332 333 334 332 332 334 336 338 338 336 335 335 335 335 335 335 335 336 336 335 336 336 334 333 332 330 330 330 330 330 331 331 332 332 332 332 331 332 332 332 333 332 331 331 330 330 331 331 331 331 331 331
335 336 335 333 332 331 332 334 334 334 332 331 330 331 334 336 336 336 338 338 337 337 336 336 335 335 335 335 334 334 335 334 332 331 330 330 330 330 330 331 333 333 332 332 332 333 332 332 332 331 332 332 332 332 332 332 332 332 332 332 331 331
335 336 335 333 330 330 336 337 335 335 334 332 332 334 337 335 332 333 335 338 338 338 338 336 336 334 333 332 331 331 333 333 332 332 332 333 334 334 333 333 334 334 333 333 333 334 334 334 333 333 333 334 334 333 333 333 332 332 332 332 332 331
335 335 333 330 326 327 335 336 334 336 335 333 334 336 337 334 333 332 330 335 339 339 338 336 333 331 330 329 330 331 333 334 335 335 335 336 336 335 335 335 335 335 335 335 335 335 336 336 335 334 334 334 333 333 333 333 332 332 332 332 332 332
334 333 329 328 324 322 330 333 333 335 334 333 335 336 335 332 333 332 327 332 339 338 336 333 330 330 330 330 331 333 335 336 337 337 336 337 336 336 337 336 336 336 336 336 336 336 336 336 335 335 335 334 333 332 331 331 331 331 331 332 333 333
332 328 326 330 326 320 325 332 334 334 333 334 334 334 333 332 332 331 328 332 338 337 334 333 333 333 333 332 332 333 335 336 336 337 336 336 337 336 336 336 336 336 335 335 335 335 335 335 335 335 334 334 333 332 330 330 331 331 332 332 331 332
333 327 327 331 330 324 325 331 334 334 335 334 334 332 332 333 331 331 331 333 336 336 335 337 337 337 335 334 334 333 335 336 336 336 336 336 335 335 336 336 336 336 335 335 334 334 334 334 333 333 333 333 333 332 332 332 331 330 330 331 330 330
334 331 330 333 334 332 330 332 334 335 335 333 334 333 332 332 330 331 333 332 334 336 336 338 339 337 337 336 333 333 334 335 336 336 336 336 336 336 336 335 335 334 334 334 333 333 332 331 330 331 332 332 332 333 333 332 331 330 330 330 330 330
336 334 334 335 336 335 334 334 334 334 333 332 333 333 332 331 329 331 333 334 336 337 337 338 338 336 336 334 332 332 333 334 335 336 336 336 336 335 334 333 331 331 331 331 331 330 329 328 328 329 330 330 331 331 331 331 331 331 330 329 329 330
337 336 336 337 336 335 335 335 334 332 331 330 330 331 333 332 332 334 335 336 337 337 337 337 336 334 333 332 332 333 334 334 335 335 336 336 334 333 331 330 329 329 329 329 329 329 329 328 327 327 328 329 329 330 330 331 331 331 331 330 329 329
337 337 337 337 335 335 335 334 334 332 330 330 329 329 332 334 337 338 337 338 338 337 337 335 334 333 333 333 333 334 334 335 335 335 334 333 332 331 331 330 329 329 329 328 328 328 328 328 327 326 327 328 329 329 330 330 331 331 331 330 330 329
337 337 337 336 334 335 335 334 334 333 330 329 330 331 333 336 338 335 334 337 338 337 336 335 334 334 334 334 333 333 333 333 333 332 331 330 330 331 331 331 330 329 329 329 328 328 328 327 327 327 327 328 328 328 329 330 331 331 331 330 330 330
337 336 337 336 335 334 334 334 333 331 329 329 332 335 336 336 335 328 330 336 337 336 337 336 336 335 334 334 333 331 330 329 328 328 327 328 328 329 329 329 329 329 329 328 328 327 327 327 327 328 328 329 329 329 330 330 330 331 331 331 330 330
336 336 337 337 336 335 333 331 330 328 329 332 335 335 334 333 331 324 329 336 337 336 337 337 336 335 334 333 332 330 328 327 327 327 327 327 326 326 326 327 327 327 327 326 326 326 327 327 327 328 329 329 330 330 331 330 331 331 331 331 330 330
336 337 338 337 336 335 331 330 330 330 333 335 334 332 330 331 331 327 328 335 337 337 337 336 335 334 333 332 330 327 325 325 325 325 326 326 325 325 325 325 325 325 325 326 326 327 328 328 328 329 329 330 330 331 331 331 331 331 330 330 330 330
336 337 338 337 336 334 330 330 333 334 335 335 332 329 328 328 332 332 328 332 336 336 335 335 334 332 331 329 326 323 322 322 321 321 322 323 324 324 323 323 322 324 326 327 327 328 329 329 329 330 330 331 331 331 331 330 331 331 330 330 330 330
337 337 337 337 336 333 330 331 333 334 334 332 329 329 328 326 330 331 329 333 336 335 335 334 332 331 329 327 324 322 320 319 319 318 318 319 320 321 322 322 323 325 327 327 328 329 329 329 329 330 330 331 331 330 330 330 330 330 330 330 330 329
337 337 337 337 335 333 332 332 333 332 331 330 328 328 328 328 329 328 329 334 336 335 334 332 331 330 327 323 322 320 319 319 319 318 317 318 319 320 321 322 323 325 326 327 328 328 329 329 329 329 330 330 330 330 330 330 330 330 329 329 329 328
337 336 337 336 335 334 333 332 332 331 330 330 329 329 329 329 328 327 330 335 336 334 333 331 331 329 325 321 319 317 317 319 320 318 317 318 319 320 321 322 323 324 325 327 327 328 329 329 329 329 330 330 329 329 329 330 329 329 329 329 328 328
336 336 337 336 335 334 332 331 331 331 331 331 330 330 328 325 325 327 332 335 335 333 331 331 330 327 323 320 318 316 316 317 318 317 317 319 320 321 322 322 323 323 324 325 326 327 328 328 328 329 329 329 329 329 329 329 329 328 328 328 328 328

ECMWFFLT2_850_thetae_138.txt.gz
Theta_e
314 314 314 315 319 323 327 329 331 333 334 335 336 335 334 331 329 327 319 310 309 310 310 310 311 311 312 313 313 312 312 312 312 312 313 313 313 313 313 313 313 313 313 314 314 315 316 316 318 324 328 329 331 331 330 331 331 331 331 332 331 331
314 314 314 316 319 324 329 330 332 334 335 336 336 335 332 330 328 325 318 310 309 310 310 310 311 311 311 313 314 314 313 313 313 314 315 314 315 314 315 315 315 315 316 317 317 316 317 318 319 323 327 329 331 329 327 329 331 330 330 331 331 331
314 314 315 316 319 325 329 329 332 334 335 336 335 333 331 329 325 320 315 310 309 310 310 310 310 311 310 311 312 314 314 314 314 315 316 316 317 317 317 317 317 318 319 319 319 318 318 318 319 322 324 325 326 323 322 327 329 330 330 330 331 331
314 314 315 316 321 327 328 329 331 332 334 335 334 332 330 329 323 317 312 309 309 309 310 310 310 310 310 311 311 312 313 315 316 316 317 318 318 318 318 318 318 318 319 319 319 320 320 321 323 325 326 327 328 326 326 327 327 328 330 330 332 332
314 314 314 315 321 326 327 328 330 332 334 334 333 331 331 332 330 325 319 316 316 314 312 312 312 311 311 311 310 310 311 311 313 314 316 317 318 318 318 318 317 318 318 318 318 319 324 325 328 330 330 330 330 330 330 330 328 328 328 330 332 332
314 314 314 314 318 322 324 327 329 331 333 333 331 330 332 335 335 334 329 327 326 322 317 315 316 316 317 318 315 314 313 313 313 313 312 313 314 314 315 316 315 315 316 317 316 317 323 328 329 330 330 330 330 330 331 331 331 329 328 328 330 332
315 314 314 315 316 319 321 325 327 330 331 331 331 330 334 336 335 335 333 332 331 328 323 320 322 323 326 327 325 323 321 322 323 320 317 316 315 314 317 320 319 319 320 322 320 320 325 330 331 331 331 331 331 331 331 331 331 330 330 329 329 330
318 315 314 314 315 316 318 323 327 330 331 331 330 330 334 336 335 334 332 332 330 330 328 326 327 328 329 329 327 326 326 327 328 326 325 324 323 322 324 327 327 327 328 328 326 326 328 330 331 331 331 331 330 331 332 331 331 331 331 331 331 330
323 319 315 314 314 314 317 324 328 330 331 330 329 331 334 335 335 334 332 332 331 330 330 330 330 329 330 328 324 325 326 326 327 327 328 328 327 327 328 329 330 330 330 330 331 330 330 330 331 331 331 330 330 331 332 332 332 332 332 332 332 332
329 323 318 314 314 314 317 324 328 330 330 329 330 333 335 336 335 334 332 333 332 331 330 329 330 329 329 327 323 326 329 328 328 328 329 330 329 329 330 331 332 331 331 332 333 333 332 332 333 332 332 331 331 331 332 333 333 333 333 333 333 333
332 329 322 315 314 314 318 324 328 330 329 328 332 335 336 336 335 334 333 334 334 332 329 328 329 329 327 323 322 328 332 331 330 330 331 332 331 331 331 332 332 332 332 333 332 333 333 334 334 333 332 332 332 332 332 333 333 333 333 333 333 333
335 334 328 317 313 315 318 324 328 328 329 330 334 336 336 336 335 335 336 336 335 332 330 328 328 329 328 324 323 329 333 333 332 332 332 333 333 333 334 334 334 334 334 334 333 333 333 334 334 333 333 333 333 333 333 333 333 333 333 333 333 333
337 335 333 322 313 315 319 324 327 328 329 332 335 335 335 335 336 336 337 337 335 333 331 329 329 330 331 330 330 332 334 335 334 334 334 334 334 335 335 334 334 334 334 334 334 333 333 333 333 333 333 333 333 333 333 332 333 333 333 334 333 333
336 332 332 324 314 315 320 324 326 328 330 332 334 333 333 334 335 336 336 335 334 333 332 331 329 331 334 334 335 336 335 336 335 334 335 335 335 335 334 334 333 334 334 334 334 334 334 333 334 333 333 333 333 333 333 333 332 333 333 333 333 333
335 329 325 319 315 317 324 326 328 330 331 332 334 334 334 335 334 334 334 333 333 333 332 331 329 331 335 336 336 336 336 336 336 335 334 334 334 334 333 333 333 333 332 332 332 332 332 331 331 331 331 331 331 332 332 332 332 332 332 333 333 333
335 332 324 318 319 323 327 330 331 333 333 335 335 336 337 336 334 332 331 330 330 330 330 330 330 333 336 335 335 335 336 336 336 335 334 334 334 334 333 332 332 331 330 330 330 330 330 330 330 330 330 330 330 330 330 330 330 330 330 330 331 331
336 334 330 329 330 330 333 334 334 334 335 336 336 336 337 335 333 330 329 330 329 328 329 331 333 335 335 334 334 335 336 336 334 334 334 334 333 332 332 331 331 331 330 330 330 331 331 332 331 331 330 330 330 331 330 330 330 330 330 330 330 330
336 335 335 336 336 335 336 335 335 336 336 336 336 336 336 334 332 328 328 333 333 333 334 334 335 334 334 334 334 334 335 333 332 332 332 332 332 331 331 331 331 331 332 332 332 332 333 333 333 331 331 330 330 331 331 331 331 332 332 332 332 331
336 336 335 337 337 336 336 334 335 336 335 335 336 336 335 333 330 327 331 335 334 334 335 334 334 333 334 334 334 334 334 332 331 332 332 332 334 333 333 333 332 333 334 334 334 334 334 334 333 333 332 331 332 332 332 332 332 332 332 332 332 332
336 336 335 337 337 336 336 334 335 336 335 334 335 335 333 331 329 330 334 335 333 334 333 333 333 333 333 333 333 334 333 332 332 333 334 334 336 336 335 335 335 335 335 335 335 335 335 334 334 333 333 333 333 332 332 332 332 332 331 332 332 332
336 336 335 336 337 336 335 335 334 335 334 333 332 331 330 331 333 334 334 331 331 334 333 330 331 332 332 331 330 332 332 332 333 335 336 336 336 337 337 336 336 335 336 336 335 335 334 334 333 333 332 331 331 331 331 330 330 330 331 332 332 332
336 335 335 335 336 336 336 335 333 332 330 329 329 329 330 335 335 333 331 328 330 335 333 328 328 330 330 328 328 330 332 333 335 336 337 337 337 337 337 336 336 335 335 335 334 334 333 333 332 331 331 329 327 326 325 326 328 329 330 332 332 332
336 335 334 333 333 335 335 333 329 328 328 329 330 331 334 336 334 331 330 329 333 336 333 327 327 327 328 329 330 331 333 335 336 336 336 336 337 336 336 336 335 335 334 334 334 333 333 332 331 330 330 328 327 326 322 324 326 326 327 329 330 330
336 335 334 333 333 332 330 328 328 330 332 333 333 334 336 336 333 332 331 332 335 335 332 330 330 329 330 332 333 333 335 335 335 335 336 336 336 336 335 335 335 334 334 333 333 332 332 331 331 329 328 328 328 327 326 326 325 323 324 327 328 328
336 335 334 334 332 328 327 330 333 335 336 334 334 336 336 334 333 333 332 334 336 334 332 333 332 332 334 335 335 335 335 335 335 335 336 336 336 335 335 335 334 333 332 331 330 330 330 330 329 328 327 328 329 329 329 328 327 326 325 327 328 328
335 334 333 331 328 323 326 334 335 336 336 334 335 336 334 332 332 332 333 335 335 334 335 335 334 335 335 336 335 335 335 335 336 336 336 336 335 335 334 334 333 331 330 329 329 329 328 328 326 326 326 328 329 329 329 329 329 329 327 327 328 328
334 333 331 328 327 323 325 333 335 334 335 334 334 334 331 331 332 331 333 335 334 335 337 337 336 336 336 335 335 335 335 335 336 336 335 335 335 334 334 333 331 330 329 328 328 327 327 326 324 324 326 327 328 328 329 329 330 330 329 329 328 328
332 331 327 326 330 326 323 330 334 334 334 334 334 332 329 331 331 331 334 335 335 337 338 336 336 336 336 335 335 335 335 335 335 335 335 335 334 333 332 331 330 329 328 327 327 327 326 325 323 323 325 326 327 328 328 329 330 330 330 330 329 329
332 330 326 328 332 329 324 327 332 334 335 334 334 332 331 331 330 332 335 336 337 338 337 336 335 335 335 335 335 335 334 334 334 334 333 332 331 330 329 328 328 326 326 326 327 326 325 324 324 325 325 326 327 327 328 329 329 329 330 330 330 329
335 332 330 330 333 333 329 329 332 334 334 333 332 333 332 330 330 333 336 337 338 338 337 335 335 334 334 335 334 334 334 333 332 331 329 327 326 327 326 325 325 325 325 326 325 325 325 325 325 326 326 327 327 328 328 329 330 330 330 330 330 330
336 335 333 333 335 335 333 332 334 335 334 332 331 331 330 330 332 335 336 337 337 338 337 334 334 335 335 335 335 334 334 332 331 329 327 325 325 324 324 322 322 323 324 323 323 324 325 326 327 327 328 328 329 329 329 330 330 330 329 330 330 330
337 336 335 335 336 336 335 335 335 335 333 331 329 328 327 331 334 333 333 335 336 337 335 333 334 336 335 335 335 333 332 330 328 326 324 322 322 322 322 320 320 320 321 322 324 325 326 327 327 328 328 328 329 329 329 330 330 329 329 329 329 329
337 337 336 337 337 336 335 336 336 334 332 329 328 329 329 332 333 330 330 332 334 335 333 330 333 335 335 335 333 332 331 328 324 321 320 319 319 319 318 318 319 320 322 324 326 326 327 327 327 327 327 328 329 329 329 329 329 328 328 328 328 328
338 337 337 338 337 336 336 336 335 333 331 329 330 332 332 332 330 328 329 332 332 333 331 329 332 334 334 333 332 331 328 325 321 318 317 317 316 316 316 318 320 321 323 325 326 326 326 327 327 327 326 327 328 328 328 329 328 328 327 327 328 328
339 338 338 338 337 336 336 336 334 332 331 332 334 334 331 330 329 329 330 331 332 332 330 330 333 334 333 332 331 329 325 321 319 316 315 315 315 316 317 319 320 321 323 324 325 325 326 327 327 326 326 327 328 327 328 328 328 328 327 327 327 327
339 339 338 338 337 336 336 335 334 332 332 335 335 332 329 331 333 332 331 331 332 333 332 332 334 334 333 332 330 328 322 318 316 314 314 315 316 318 319 320 321 322 322 323 324 324 324 325 326 325 326 326 326 326 326 326 326 327 327 326 327 326
339 339 338 338 338 337 335 334 334 334 334 336 334 330 330 332 334 333 332 333 333 334 334 333 333 333 332 331 329 325 320 316 313 313 314 316 318 320 320 322 322 323 323 323 323 323 323 324 324 324 324 324 325 325 325 325 325 325 325 324 325 325

ECMWFFLT2_850_thetae_141.txt.gz
Theta_e
314 313 313 314 317 324 331 333 335 336 336 335 334 333 330 326 317 309 308 309 310 311 311 311 312 312 311 311 311 311 311 311 311 311 311 311 312 312 312 312 313 313 314 314 314 313 317 326 330 330 331 331 331 331 330 329 330 331 331 330 330 330
313 313 313 314 319 327 333 334 335 336 336 335 335 333 331 328 321 311 308 309 309 310 311 311 312 312 312 311 311 311 311 311 311 312 312 312 312 313 313 313 314 314 316 315 316 315 313 320 328 328 330 331 331 330 327 324 326 330 331 330 330 330
313 313 312 315 322 330 334 334 335 336 336 336 335 333 330 329 324 314 308 309 310 310 311 311 311 312 313 313 312 312 312 312 313 314 314 314 314 315 315 316 317 318 319 319 318 318 315 318 323 326 330 331 330 327 324 323 325 327 327 328 329 330
314 313 312 318 327 333 334 334 335 335 335 336 334 332 330 329 325 315 309 309 309 310 310 311 311 312 312 313 313 314 313 313 314 315 315 316 317 318 318 319 320 320 320 321 320 319 319 318 320 325 329 329 328 327 327 328 328 328 328 327 328 329
314 313 313 321 329 333 333 333 335 334 335 335 333 331 329 327 323 314 309 309 310 310 310 311 311 311 311 311 312 313 313 315 315 316 317 317 318 319 319 320 320 320 319 319 319 319 322 322 324 328 330 329 329 330 330 330 330 330 330 330 329 329
314 313 314 321 327 331 332 332 334 333 334 333 331 331 328 323 318 312 309 309 310 310 311 310 311 311 311 311 311 311 312 313 313 314 315 316 317 318 318 318 317 318 318 319 318 318 323 327 328 330 330 330 330 331 331 331 331 331 331 332 331 331
314 313 315 320 325 330 330 330 332 332 333 332 331 330 326 320 314 311 311 313 314 313 314 312 312 311 311 311 311 311 311 311 313 313 312 313 313 314 316 317 316 317 318 321 321 320 325 330 330 330 331 331 331 330 330 331 332 332 332 333 332 332
314 313 314 317 321 326 326 327 330 330 331 331 330 330 329 327 321 318 321 324 323 319 318 317 317 316 316 318 317 317 318 319 320 319 317 317 315 314 318 322 321 322 323 326 327 326 328 331 331 331 331 331 331 330 330 330 331 332 332 332 333 333
314 313 314 314 317 321 322 325 329 328 330 330 329 331 333 334 331 329 331 331 329 325 322 323 324 325 325 326 324 324 324 325 327 325 325 325 323 322 324 327 328 327 328 329 329 330 330 331 331 331 331 332 332 332 331 331 331 332 332 332 332 333
313 314 314 313 314 318 319 324 328 328 329 329 329 333 335 335 334 334 333 332 332 329 327 328 328 328 328 327 325 326 326 327 327 328 329 330 329 329 329 330 331 331 331 331 331 331 331 331 331 332 332 333 333 333 332 332 332 332 332 332 333 333
314 314 313 313 314 315 318 323 327 328 329 329 330 333 335 335 334 334 333 332 331 330 329 329 329 328 328 326 325 327 330 330 330 330 331 332 332 332 332 332 332 333 333 333 333 333 333 332 332 332 333 333 333 333 332 332 332 333 333 332 333 333
317 315 314 313 314 314 318 323 327 329 329 329 330 332 334 335 334 334 333 333 332 330 329 328 328 328 326 323 323 328 332 332 332 331 332 333 333 333 333 333 333 334 334 334 334 334 334 334 333 333 333 333 333 332 332 332 332 333 333 333 333 333
322 318 316 315 314 314 317 323 327 329 329 329 330 332 334 335 334 334 334 334 333 332 330 328 328 330 329 326 326 330 333 333 333 333 333 333 333 333 332 332 333 333 333 333 334 334 334 334 334 334 333 333 333 332 332 332 332 332 332 332 332 332
326 322 319 316 315 313 316 323 328 329 329 329 330 332 335 335 335 335 334 334 333 332 331 329 328 331 333 332 332 334 334 334 335 334 334 333 333 333 333 333 333 333 333 333 333 334 333 333 332 332 332 332 332 332 332 332 332 332 332 332 332 332
330 327 323 318 315 314 315 321 327 329 329 329 331 333 336 336 335 336 335 334 333 332 332 330 328 330 334 334 335 336 336 335 335 335 335 334 334 334 333 333 332 332 331 331 332 331 330 330 329 328 329 329 330 330 330 330 330 330 331 331 330 330
332 332 330 325 318 314 314 320 328 330 330 330 331 334 335 335 335 335 335 334 333 332 332 332 329 329 332 335 335 335 336 335 335 335 334 333 333 332 332 331 331 330 329 329 329 328 328 329 328 328 328 328 328 328 329 329 329 329 329 329 329 329
334 334 334 331 322 314 314 320 328 330 330 330 332 334 334 334 334 333 333 333 332 331 332 333 330 329 332 335 335 334 334 335 334 334 333 332 331 331 330 330 330 329 328 328 328 328 329 329 329 329 329 329 329 329 329 329 330 330 331 331 331 331
336 335 334 334 325 315 315 322 329 329 329 330 331 333 333 333 333 331 331 331 330 329 330 331 330 331 333 334 334 333 333 334 333 333 331 330 329 329 328 328 329 329 329 330 331 331 331 331 331 331 330 330 330 330 330 331 331 332 332 332 331 331
336 332 331 331 323 314 317 325 328 329 329 330 331 332 334 334 333 331 330 329 329 329 328 329 330 332 335 334 333 333 333 332 332 331 329 329 329 329 330 331 331 332 333 333 333 334 333 333 332 332 332 332 331 331 331 331 331 331 332 331 331 330
334 328 324 323 319 316 322 327 329 330 331 332 332 333 335 334 334 333 330 330 332 332 331 332 333 335 335 335 334 333 332 331 330 329 329 331 333 333 334 334 334 335 335 335 334 334 334 333 332 332 332 331 331 330 329 329 329 330 330 329 329 329
335 329 322 319 319 320 322 325 327 330 332 334 334 335 336 335 334 333 331 330 333 335 335 335 335 335 336 335 334 332 330 329 329 329 331 333 334 335 335 335 336 336 335 335 334 333 333 332 331 330 329 328 326 325 324 324 325 325 327 328 328 328
335 332 328 327 327 324 322 322 323 328 332 335 336 335 335 334 334 332 330 331 335 336 336 335 335 336 336 335 332 330 328 328 330 331 332 333 334 335 335 336 336 335 335 334 334 333 332 331 330 329 328 325 322 321 320 319 322 325 326 326 324 325
335 334 334 334 333 329 327 327 327 330 334 336 335 334 333 334 333 331 331 334 335 335 335 336 336 336 335 333 330 327 327 329 331 332 332 334 335 334 335 335 335 334 334 333 333 332 331 330 329 328 327 325 324 321 318 318 322 324 324 323 324 326
336 335 335 335 335 333 332 332 333 333 334 335 334 332 333 333 332 332 333 335 334 333 336 336 333 333 333 331 329 328 328 330 332 332 333 333 333 333 334 334 334 333 333 333 332 331 329 328 327 326 326 326 326 324 323 323 322 321 322 324 325 326
336 336 335 335 335 335 334 334 335 334 334 335 334 332 333 332 332 334 335 334 333 333 335 334 331 333 333 332 332 331 331 332 333 333 333 332 331 332 333 333 333 333 332 332 330 329 328 327 327 326 326 326 326 326 326 327 326 324 324 325 326 326
336 336 336 336 335 336 335 334 335 335 334 334 333 332 331 331 333 334 335 334 332 333 335 333 333 335 335 334 334 332 332 332 333 333 332 331 331 332 332 333 333 333 332 331 329 328 328 327 326 325 325 325 326 326 327 327 327 327 326 325 326 326
336 336 336 336 335 336 335 335 334 334 333 331 330 331 330 332 334 334 334 334 333 334 334 333 335 336 335 335 334 333 333 332 332 332 332 332 332 333 334 333 333 331 329 328 328 327 327 326 325 324 323 324 325 326 326 327 328 328 328 327 326 327
335 336 336 335 335 335 335 335 334 333 332 330 330 332 332 334 335 334 334 333 334 335 333 334 336 336 335 335 335 334 334 333 333 333 333 333 333 334 333 332 330 328 327 326 325 325 325 325 324 323 323 323 324 325 326 327 328 329 329 328 328 327
336 336 336 335 335 334 334 333 331 329 328 330 333 334 334 335 335 334 333 333 334 334 333 335 336 335 335 335 335 334 334 333 333 333 333 333 332 331 330 328 326 325 324 323 323 323 324 323 323 323 323 324 325 326 327 328 328 328 328 329 328 327
336 336 336 335 335 334 334 331 327 327 330 333 335 335 334 335 334 333 333 334 334 333 334 336 336 336 335 335 334 334 333 333 333 333 332 331 329 328 326 325 323 323 321 320 320 321 322 323 323 324 325 325 326 327 328 328 327 327 327 328 328 327
336 336 336 336 335 335 334 329 326 330 334 335 335 334 334 334 334 333 333 334 333 333 335 336 336 336 335 335 335 334 333 332 332 332 331 328 326 325 324 322 321 320 319 318 319 321 323 324 324 325 325 326 326 327 327 327 327 327 327 327 327 327
336 336 336 336 335 334 331 326 326 333 335 335 334 334 334 333 333 332 332 334 334 335 337 336 336 336 336 335 334 333 332 331 331 331 328 325 322 321 320 318 318 318 318 319 320 322 324 325 325 325 325 325 325 325 327 328 327 328 327 327 326 326
336 336 335 336 335 333 330 326 327 333 335 334 335 334 333 332 331 331 332 334 335 336 337 336 336 336 336 335 334 333 332 331 329 328 325 322 319 318 316 315 315 316 318 319 321 323 324 324 324 324 325 324 324 325 326 326 326 326 327 326 326 326
337 337 335 336 335 331 330 328 328 331 333 333 334 334 333 332 331 330 332 334 336 337 337 336 336 336 336 336 335 334 332 329 327 324 321 319 317 316 314 314 315 317 319 320 321 323 323 323 324 325 325 324 324 324 324 324 324 325 325 325 325 326
337 336 336 335 333 330 331 330 329 329 331 333 334 333 332 331 331 331 333 335 336 337 337 336 335 336 335 335 334 333 331 328 325 320 317 316 315 314 314 314 317 318 319 320 321 322 322 323 323 324 324 324 324 323 323 323 323 323 323 323 324 324
336 336 335 333 330 330 332 333 332 332 333 334 334 332 330 329 331 333 335 335 334 335 335 335 335 335 334 334 333 332 331 328 323 318 316 314 313 313 314 316 319 320 321 321 321 322 322 322 322 322 322 322 322 322 322 322 322 323 323 323 323 323
336 335 335 332 330 332 335 335 334 334 335 335 333 331 330 331 333 336 336 333 332 334 334 334 335 335 334 333 332 332 330 327 321 317 315 313 312 314 316 319 320 321 321 321 322 322 322 322 321 321 321 321 321 322 322 322 322 322 321 321 321 322

ECMWFFLT2_850_thetae_144.txt.gz
Theta_e
313 314 315 315 317 318 323 331 332 332 332 331 331 330 324 315 308 308 308 309 310 310 311 311 311 311 311 310 311 311 311 312 311 310 310 311 311 312 312 312 312 313 315 319 323 328 330 330 330 330 331 331 331 330 329 326 324 325 328 328 328 328
313 313 314 315 316 318 326 331 332 333 332 332 332 330 323 314 308 308 309 309 310 310 311 311 311 311 310 310 311 311 311 311 310 311 311 311 312 312 313 313 314 314 314 315 316 321 326 330 331 330 331 331 330 329 328 326 324 326 327 328 327 327
313 313 314 315 316 320 327 331 332 333 332 333 333 330 324 315 308 308 309 309 310 311 311 312 312 311 311 310 311 311 311 311 311 312 312 313 313 313 314 314 315 316 316 316 316 315 317 323 328 329 330 331 330 328 328 327 328 328 329 330 330 329
313 313 313 314 315 321 328 331 332 332 333 333 332 330 326 319 311 308 309 309 310 310 311 312 312 312 311 311 311 311 312 312 313 313 314 315 315 316 317 317 318 319 319 319 319 317 315 316 321 327 330 331 330 328 328 328 329 329 330 330 331 331
314 313 313 313 315 322 328 330 332 333 333 333 332 331 328 324 314 308 309 309 310 310 311 312 313 313 313 312 312 312 313 313 314 315 316 317 318 318 319 319 319 319 319 320 319 319 318 316 317 324 328 329 329 329 329 329 329 330 330 330 331 331
314 313 313 312 316 323 326 329 331 332 333 333 333 331 329 326 317 309 309 309 310 310 311 312 312 313 313 313 313 313 314 314 315 316 316 318 318 319 319 319 319 318 318 318 318 318 319 320 319 322 327 329 329 329 330 329 330 330 330 330 331 331
314 313 313 313 317 324 327 329 331 332 333 334 333 331 329 327 318 310 308 309 310 310 311 311 311 312 312 312 312 312 313 313 314 314 314 315 317 318 318 317 316 316 316 317 317 317 317 320 323 324 327 328 329 329 329 330 330 330 330 331 331 331
313 313 314 315 321 326 328 330 331 332 333 333 333 331 328 326 318 310 309 310 309 310 311 311 311 311 311 311 311 311 311 311 312 313 312 313 314 314 315 317 317 317 318 321 323 323 321 322 326 327 327 328 329 329 329 330 330 330 330 331 331 331
314 315 316 317 322 326 327 329 331 331 333 333 332 330 326 322 316 310 310 311 311 312 312 311 311 312 312 312 312 312 313 314 317 318 318 318 316 315 318 322 324 324 325 327 329 330 329 329 330 330 330 330 331 331 330 330 330 330 331 331 331 331
314 315 317 318 321 324 324 327 329 330 331 332 332 328 321 316 313 311 313 315 317 317 316 315 314 316 318 319 319 319 320 322 324 325 325 326 325 325 327 329 330 330 330 330 331 331 332 331 331 331 331 331 332 332 332 332 331 331 331 331 331 332
314 315 319 320 320 322 322 324 328 330 331 331 330 326 320 316 314 318 322 322 322 321 320 321 321 324 325 324 324 324 324 325 326 327 328 330 330 331 332 332 332 332 331 331 331 331 332 332 332 332 332 332 332 332 332 332 332 331 330 331 331 332
314 315 319 320 319 321 322 324 328 330 330 330 329 328 327 325 323 328 330 329 327 325 324 326 327 327 327 326 325 326 327 327 328 329 329 331 332 332 332 332 332 332 331 331 331 331 331 331 331 331 332 332 332 332 332 332 331 331 331 331 331 332
315 315 318 318 317 320 322 324 328 329 330 330 330 331 333 332 331 332 332 331 330 328 328 328 328 327 326 325 324 328 331 331 331 331 331 332 332 332 332 332 333 332 332 332 332 332 332 331 331 330 330 330 330 330 330 331 330 330 330 331 331 332
316 316 316 316 316 318 321 323 327 329 331 331 331 333 335 334 333 333 332 331 331 329 328 328 329 329 327 325 327 330 332 333 333 333 332 332 332 332 332 333 333 332 333 333 332 332 331 330 328 328 327 327 328 328 328 329 328 329 329 329 330 330
316 316 315 315 314 316 320 322 326 330 331 331 331 333 335 334 333 333 332 332 332 331 330 328 329 332 332 331 333 333 333 333 332 332 332 332 332 332 332 333 333 332 332 332 331 330 329 327 326 326 326 327 327 328 328 328 328 328 328 329 329 329
316 314 314 313 314 316 319 322 327 330 331 332 331 332 334 334 334 333 333 333 333 332 331 329 329 331 334 334 334 334 334 333 332 332 332 332 332 331 332 331 331 330 330 330 329 329 328 327 326 326 327 327 328 329 329 329 329 329 329 329 330 330
316 314 314 314 314 315 318 321 328 331 331 332 331 330 333 334 334 334 334 334 334 332 331 330 329 330 332 333 334 334 333 333 333 332 332 332 332 331 330 330 329 328 328 328 328 328 328 328 328 328 328 329 329 330 330 330 330 330 330 331 331 331
318 316 315 315 315 315 317 320 327 331 331 332 331 331 334 335 335 335 335 334 333 332 331 330 330 331 332 332 334 334 334 333 333 333 333 332 331 329 329 328 328 327 327 328 329 330 330 330 330 329 328 328 328 329 330 330 330 330 330 330 331 331
323 320 317 317 316 315 317 319 325 331 332 332 331 332 334 335 335 335 334 334 332 332 331 330 330 331 332 333 334 335 334 333 332 333 332 331 329 328 327 327 328 329 330 331 332 332 331 330 330 329 328 327 327 328 328 328 327 327 327 328 329 329
328 325 322 321 322 318 316 317 324 331 333 332 331 333 335 335 335 334 333 332 332 332 331 331 330 331 332 333 334 334 334 334 333 332 331 329 328 327 328 329 330 331 332 332 332 332 331 331 330 329 328 327 325 324 324 324 324 323 324 325 327 328
331 329 328 330 331 327 319 315 321 329 332 331 331 333 335 334 333 333 331 331 331 332 332 331 329 330 332 333 335 334 334 334 333 332 330 328 328 329 330 330 331 331 332 332 332 332 331 331 329 327 324 321 319 319 320 320 319 320 323 326 326 325
331 331 332 333 335 334 325 315 317 326 331 331 331 332 333 333 333 332 331 331 332 333 334 333 331 332 333 334 334 334 334 333 331 330 329 328 328 329 329 329 330 331 332 333 333 332 331 329 328 325 321 317 316 316 317 318 321 323 324 325 325 324
330 331 332 333 335 336 328 316 316 325 331 331 330 331 333 333 333 333 332 332 332 333 335 335 335 335 335 335 334 333 332 330 329 328 328 328 329 329 329 329 330 332 333 334 333 331 330 328 326 324 321 319 318 317 316 319 321 321 321 323 323 324
332 332 334 335 334 334 326 316 317 327 331 332 331 333 334 334 333 333 333 333 333 333 335 336 336 336 336 335 332 330 328 327 328 329 329 330 330 330 330 330 331 332 332 333 332 331 329 327 326 325 322 321 319 319 320 321 319 317 318 322 323 324
333 335 336 336 333 329 321 316 321 330 333 334 334 334 334 334 334 334 334 333 333 334 335 336 336 337 336 332 329 328 327 328 329 330 330 331 330 330 330 331 331 331 331 332 331 329 327 326 325 325 323 322 321 322 323 323 321 320 319 321 322 323
335 337 337 336 333 326 319 318 325 331 333 334 334 333 332 332 332 333 334 333 334 335 335 335 336 336 333 329 329 330 330 330 331 331 331 331 331 330 330 331 331 330 330 331 329 327 325 324 324 323 323 323 323 323 324 324 324 324 323 322 322 323
336 338 336 335 332 326 321 322 327 330 331 332 331 330 330 330 331 332 333 333 335 335 334 336 336 333 329 329 332 333 333 333 333 332 332 332 331 330 330 329 329 329 329 328 326 325 323 322 322 322 323 323 323 324 325 326 327 327 326 325 324 324
337 337 335 334 332 329 327 327 330 333 333 333 331 330 330 330 330 332 333 334 336 335 334 336 335 331 329 330 333 334 334 333 332 332 332 333 332 331 330 329 327 327 326 326 324 323 321 320 321 322 322 322 324 324 325 327 327 327 326 326 326 325
338 337 335 334 333 333 332 332 333 335 334 334 333 332 331 330 330 332 332 334 336 334 335 336 334 332 331 331 333 334 333 332 332 333 333 333 332 331 330 328 326 326 325 324 322 320 319 318 319 321 321 321 323 324 325 325 325 325 326 326 326 326
338 337 335 335 334 334 334 334 335 335 335 334 334 334 332 331 331 332 333 335 335 334 335 335 333 332 331 332 334 333 332 332 333 333 333 333 332 330 327 324 324 323 322 321 320 318 318 318 319 320 321 322 323 324 324 324 324 326 326 325 326 326
339 337 336 336 335 334 334 335 335 335 335 335 335 335 334 332 332 332 334 335 335 334 335 334 333 332 332 334 334 333 333 333 333 333 332 332 331 328 325 322 320 320 319 318 318 318 318 319 321 322 322 323 323 323 323 323 325 326 325 324 325 325
339 337 337 337 336 336 335 335 336 335 335 335 335 334 333 333 333 334 335 335 334 334 335 334 332 331 333 335 335 334 335 334 333 333 332 331 329 326 323 320 318 317 317 317 318 319 320 321 323 323 323 322 323 322 322 323 323 323 322 322 323 322
339 337 337 337 337 336 335 336 336 335 335 336 334 331 331 333 334 335 335 334 333 334 334 333 331 331 334 335 336 335 334 333 333 333 331 329 326 323 321 318 316 316 316 317 318 320 321 322 323 323 322 322 323 323 322 322 321 321 321 321 321 321
338 337 337 337 336 336 336 335 335 335 335 334 332 330 331 334 334 335 335 332 332 333 333 332 332 333 335 335 335 334 333 333 333 332 330 327 323 320 318 317 316 316 317 318 319 320 321 322 322 322 322 321 321 321 321 321 321 321 321 321 321 321
337 336 336 336 336 336 335 334 334 335 335 333 332 332 332 334 335 335 334 332 332 333 333 333 333 334 335 335 334 333 333 333 332 331 329 325 320 317 316 315 316 317 318 319 320 320 321 321 321 321 321 320 320 320 320 320 320 320 320 320 320 320
337 336 336 336 335 335 334 334 334 334 334 332 333 334 334 335 335 335 334 332 332 334 334 334 334 335 336 335 333 332 333 332 332 330 328 322 317 315 315 316 317 319 319 319 320 321 321 321 321 320 320 319 319 319 319 319 319 319 319 319 319 320
338 337 336 336 336 335 335 334 334 334 333 332 333 334 334 335 335 334 333 333 333 334 335 335 334 336 336 334 333 332 333 332 331 330 326 319 315 314 316 317 318 319 319 320 321 321 321 320 319 319 318 318 318 318 318 318 318 318 319 319 319 320